STARLINK-35384 (65884 NORAD) Tracking and Keplerian Element Data

This shows tracking and keplerian element data for the satellite.

Feedback or suggestion? Click here.




ElementValue
Catalog65884
NameSTARLINK-35384
Epoch Orbit1259
Epoch Day353.81321269
Epoch Year2025
RAAN22.4582
Inclination53.1604
Eccentricity0.0002066
Argument of Perigee83.9436
Mean Anonmoly276.18
Mean Motion15.3019001
Decay Rate0.00015111
L11 65884U 25224C 25353.81321269 .00015111 00000+0 52144-3 0 9993
L22 65884 53.1604 22.4582 0002066 83.9436 276.1800 15.30190010 12593



Live tracking and technical data element details for STARLINK-35384 (NORAD 65884). STARLINK-35384 can be tracked NOW for your location showing map with azimuth and elevation plus other details from your city location.







IsCatalogInMostPopularTable: catalog: 65884, numindb: 4
Update: records affected: 1



GetName: 65884 STARLINK-35384

Hit Count: updated at: Mon, 09 Feb 2026 07:44:33 GMT